Simultaneous Nadir Overpasses (SNOs) Predictions

Prediction of SNOs between GOES-17 and TERRA Satellite Orbit:

Table of predicted SNOs for the next 14.0 days since TLE Epoch: 6/4/2022
Index Date Time (GOES-17) GOES-17 Lat,Lon TERRA Lat,Lon Distance(km) Time Diff (sec)
1 06/05/2022 07:25:56 -0.04,-137.20 0.16,-136.38 93.82 80
2 06/05/2022 19:44:31 0.04,-137.20 0.93,-141.54 493.25 80
3 06/07/2022 07:13:42 -0.04,-137.20 0.77,-133.42 429.03 80
4 06/07/2022 19:32:17 0.03,-137.19 0.32,-138.59 158.11 80
5 06/09/2022 19:22:43 0.03,-137.18 -0.29,-135.63 176.53 80
6 06/10/2022 07:41:27 -0.03,-137.18 -0.78,-140.83 414.31 80
7 06/12/2022 07:29:13 -0.03,-137.17 -0.17,-137.88 80.80 80
8 06/14/2022 07:19:39 -0.03,-137.14 0.45,-134.93 251.57 80
9 06/14/2022 19:38:14 0.02,-137.13 0.65,-140.09 336.46 80
10 06/16/2022 19:26:00 0.02,-137.09 0.03,-137.13 5.24 80
